Regional Weather Roundup
Issued by NWS State College, PA

Home | Current Version | Previous Version | Text Only | Print | Product List | Glossary On
Versions: 1 2 3 4 5 6 7 8 9 10 11 12 13 14 15 16 17 18 19 20 21 22 23 24 25 26 27 28 29 30 31 32 33 34 35 36 37 38 39 40 41 42 43 44 45 46 47 48 49 50
504
ASUS41 KCTP 021110
RWRCTP

REGIONAL WEATHER ROUNDUP
NATIONAL WEATHER SERVICE STATE COLLEGE PA
700 AM EDT MON MAY 02 2016

Note: "fair" indicates few or no clouds below 12,000 feet with no
significant weather and/or obstructions to visibility.

* = STATION THAT DOES NOT REPORT PRECIPITATION /E.G. RAIN...SNOW...ETC/
    THUNDER OR FOG.

PAZ002>004-007>009-013>016-020>023-029>032-021200-
WESTERN PENNSYLVANIA

CITY           SKY/WX    TMP DP  RH WIND       PRES   REMARKS
ERIE           CLOUDY    44  42  93 NE10      29.93R
MEADVILLE        N/A    N/A N/A N/A MISG      29.89R
FRANKLIN*      CLOUDY    50  46  87 NW8       29.89R
NEW CASTLE     CLOUDY    49  48  97 NW6       29.90R
BEAVER COUNTY  MOCLDY    54  52  94 S3        29.87
BUTLER*        CLOUDY    54  52  94 S5        29.90S VSB 1/2
PITTSBURGH INT MOCLDY    54  51  90 SE3       29.88R
PITTSBURGH     CLOUDY    57  54  89 S9        29.88R FOG
INDIANA*       CLOUDY    59  57  94 SW8       29.91S
LATROBE        MOCLDY    59  59 100 SW12      29.89F
WASHINGTON CO* CLOUDY    57  55  94 SW5       29.90R
$$

PAZ004>006-010>012-017>019-024>028-033>037-041-042-045-046-049>053-021200-
CENTRAL PENNSYLVANIA

CITY           SKY/WX    TMP DP  RH WIND       PRES   REMARKS
BRADFORD       LGT RAIN  49  47  93 SE8       29.84F
DUBOIS         CLOUDY    52  51  97 VRB5      29.85S
CLEARFIELD     LGT RAIN  52  50  93 CALM      29.88F
JOHNSTOWN      LGT RAIN  56  52  86 S8        29.89F
ALTOONA        LGT RAIN  54  53  97 SW10      29.92S
STATE COLLEGE  TSTM      50  50 100 S5        29.91R FOG
WILLIAMSPORT   TSTM      50  48  93 VRB3      29.92R
SELINSGROVE    LGT RAIN  50  48  93 S5        29.93S FOG
FT INDIANTOWN  FOG       48  48 100 E5        29.95R VSB 3/4
CAPITAL CITY   CLOUDY    52  50  93 SE8       29.95R FOG
HARRISBURG     CLOUDY    51  49  92 SE7       29.94S FOG
YORK           CLOUDY    52  51  97 SE7       29.95R FOG
$$

PAZ038>040-043-044-047-048-054-055-060>062-067>071-021200-
EASTERN PENNSYLVANIA

CITY           SKY/WX    TMP DP  RH WIND       PRES   REMARKS
SCRANTON       LGT RAIN  48  44  86 NE3       29.91F
MOUNT POCONO   LGT RAIN  42  41  96 E7        29.92F VSB<1/4
ALLENTOWN      CLOUDY    47  44  90 SE6       29.98R FOG
QUAKERTOWN*    CLOUDY    45  45 100 SE7       29.99R VSB 1/2
READING        CLOUDY    48  45  89 SE8       29.96R FOG
LANCASTER      CLOUDY    48  48 100 E7        29.96S FOG
COATESVILLE    FOG       46  46 100 SE6       29.98S VSB<1/4
POTTSTOWN      CLOUDY    46  46 100 E3        30.00R FOG
BLUE BELL      CLOUDY    45  45 100 CALM      29.99S VSB 1/4
DOYLESTOWN     FOG       44  44 100 VRB3      29.98S VSB 1/2
WILLOW GROVE   NOT AVBL
NORTH PHILA    CLOUDY    48  46  93 E7        30.01R FOG
PHILADELPHIA   CLOUDY    49  45  86 SE6       30.01R
$$




USA.gov is the U.S. government's official web portal to all federal, state and local government web resources and services.